Home   Weather   Mashhad   Past weeks

Flag for Iran Past Weather in Mashhad, Iran — Yesterday and Last 2 Weeks

46 °F


Feels Like: 44 °F
Forecast: 41 / 57 °F
Wind: 5 mph from Southeast

Location: Mashhad Airport

Current Time: Oct 21, 2016 at 11:48:01 PM

Latest Report: Oct 21, 2016 at 11:30 PM

Visibility: 10 mi

Pressure: 30.30 "Hg (26.89 "Hg at 981m altitude)

Humidity: 50%

Dew Point: 28 °F

Location of MashhadLocation

Past Weather in Mashhad — Graph


Mashhad Temperature Yesterday

Maximum temperature yesterday: 59 °F (at 1:00 PM)
Minimum temperature yesterday: 39 °F (at 4:30 AM)
Average temperature yesterday: 48 °F

High & Low Weather Summary for the Past Weeks

High86 °F (Oct 15, 2:00 PM)93% (Oct 18, 9:30 AM)30.42 "Hg (Oct 18, 9:30 AM)
Low39 °F (Oct 20, 4:30 AM)7% (Oct 9, 2:00 PM)29.89 "Hg (Oct 8, 9:30 AM)
Average59 °F42%30.15 "Hg
* Reported Oct 6 10:30 PM — Oct 21 10:30 PM, Mashhad, Weather by CustomWeather, © 2016

Note: Actual official high and low records may vary slightly from our data, if they occured in-between our weather recording intervals... More about our weather records


Mashhad Weather History for the Previous 24 Hours

Scroll right to see more
Time TempWeatherWind HumidityBarometerVisibility
10:30 PM
Fri, Oct 21
48 °FClear.5 mph46%30.30 "Hg10 mi
10:00 PM48 °FClear.5 mph46%30.30 "Hg10 mi
9:30 PM50 °FClear.7 mph43%30.30 "Hg10 mi
8:30 PM50 °FClear.7 mph43%30.27 "Hg10 mi
8:00 PM50 °FClear.16 mph40%30.27 "Hg10 mi
7:30 PM52 °FClear.12 mph41%30.27 "Hg10 mi
7:00 PM52 °FClear.14 mph44%30.24 "Hg10 mi
6:30 PM54 °FClear.12 mph41%30.24 "Hg10 mi
6:00 PM55 °FPassing clouds.12 mph38%30.24 "HgN/A
5:30 PM55 °FPassing clouds.12 mph38%30.21 "HgN/A
5:00 PM59 °FPartly sunny.14 mph34%30.18 "HgN/A
4:30 PM61 °FPartly sunny.18 mph31%30.18 "HgN/A
4:00 PM63 °FPartly sunny.14 mph30%30.15 "HgN/A
3:30 PM64 °FPartly sunny.9 mph28%30.15 "HgN/A
3:00 PM66 °FPassing clouds.7 mph26%30.15 "HgN/A
2:30 PM66 °FPassing clouds.9 mph28%30.15 "HgN/A
2:00 PM64 °FPassing clouds.5 mph30%30.12 "HgN/A
1:30 PM66 °FPassing clouds.9 mph28%30.12 "HgN/A
1:00 PM66 °FPassing clouds.5 mph28%30.15 "HgN/A
12:30 PM63 °FPassing clouds.5 mph32%30.15 "HgN/A
12:00 PM63 °FPassing clouds.5 mph32%30.15 "HgN/A
11:30 AM61 °FSunny.No wind34%30.18 "Hg10 mi
11:00 AM61 °FSunny.5 mph34%30.18 "Hg10 mi
10:30 AM57 °FSunny.5 mph36%30.18 "Hg10 mi
10:00 AM57 °FSunny.5 mph36%30.21 "Hg10 mi
9:30 AM54 °FSunny.9 mph41%30.21 "Hg10 mi
9:00 AM52 °FSunny.5 mph44%30.21 "Hg10 mi
8:30 AM50 °FSunny.7 mph43%30.21 "Hg10 mi
8:00 AM48 °FSunny.No wind50%30.21 "Hg10 mi
7:30 AM45 °FSunny.5 mph53%30.21 "Hg10 mi
7:00 AM45 °FSunny.No wind57%30.18 "Hg10 mi
6:30 AM41 °FSunny.7 mph66%30.18 "Hg10 mi
6:00 AM39 °FClear.5 mph65%30.18 "Hg10 mi
5:30 AM39 °FClear.5 mph70%30.18 "Hg10 mi
5:00 AM39 °FClear.No wind65%30.18 "Hg10 mi
4:30 AM39 °FClear.5 mph65%30.18 "Hg10 mi
4:00 AM39 °FClear.5 mph65%30.18 "Hg10 mi
3:30 AM39 °FClear.5 mph65%30.18 "Hg10 mi
3:00 AM39 °FClear.No wind65%30.18 "Hg10 mi
2:30 AM41 °FClear.5 mph61%30.18 "Hg10 mi
2:00 AM41 °FClear.5 mph61%30.18 "Hg10 mi
1:30 AM43 °FClear.5 mph53%30.18 "Hg10 mi
1:00 AM43 °FClear.5 mph53%30.18 "Hg10 mi
12:30 AM43 °FClear.7 mph53%30.18 "Hg10 mi
12:00 AM45 °FClear.7 mph49%30.21 "Hg10 mi
11:30 PM
Thu, Oct 20
45 °FClear.5 mph49%30.21 "Hg10 mi
11:00 PM45 °FClear.7 mph49%30.21 "Hg10 mi
Weather by CustomWeather, © 2016

See weather overviewHow to use our weather pages